Powrót do katalogu

FENGYUN 1C DEB

AktywnySSO
NORAD 35241·DEBRIS·🇨🇳 China

Wystrzelony May 10, 1999 z Taiyuan Satellite Launch Center

Loading…

Następne Przeloty (najbliższe 24 godziny)

TLE

ŚwieżeSource: Space-Track

Epoka: Sep 14, 2026, 05:36 UTC

1 35241U 99025DQZ 26257.23379288  .00001297  00000-0  79318-3 0  9994
2 35241  98.6319 177.1288 0134623 154.2919 206.5022 14.03140154914685

Śledź FENGYUN 1C DEB w czasie rzeczywistym z AllMySat

Download on the App Store